EZY69MW EGNT-DTNH

Flight info

Callsign EZY69MW
Flight time 3h 2m
Altitude 35000
Route GIRLI P18 GASKO P16 RIBEL UP16 CROFT UL612 HON DCT XAMAB DCT VEULE DCT DEKOD DCT DISAK DCT DIRMO DCT ETAMO DCT ADEKA DCT MOKDI DCT MEN DCT AMLIR DCT FJR/N0435F370 DCT AMFAC DCT BATIV DCT PELOS DCT IPROM DCT KOVAS DCT CAR DCT PIRIX DCT OSMAR UA725 TANIT UM739 CBN M738 DIDON G727 ATLEL ATLEL1V
Aircraft A320/M-SDE2E3FGHIJ1RWXYZ/LB1

Departure

Time 2026-05-04 07:26
Airport Newcastle International Airport (EGNT)

Arrival

Time 2026-05-04 10:28
Airport Enfidha - Hammamet International Airport (DTNH)
Time Latitude Longitude Altitude Speed Heading
2026-05-04 07:09 55.03661 -1.70711 268 ft 0 kts
2026-05-04 07:12 55.03596 -1.70753 268 ft 3 kts 94°
2026-05-04 07:12 55.03597 -1.70781 268 ft 0 kts 94°
2026-05-04 07:14 55.03621 -1.70461 267 ft 0 kts 38°
2026-05-04 07:16 55.03629 -1.70452 267 ft 8 kts 31°
2026-05-04 07:17 55.03691 -1.70435 267 ft 8 kts
2026-05-04 07:17 55.03762 -1.70415 267 ft 14 kts 27°
2026-05-04 07:17 55.03780 -1.70344 267 ft 5 kts 87°
2026-05-04 07:17 55.03776 -1.70215 264 ft 16 kts 94°
2026-05-04 07:18 55.03772 -1.70017 261 ft 17 kts 87°
2026-05-04 07:18 55.03785 -1.69810 259 ft 18 kts 83°
2026-05-04 07:18 55.03816 -1.69592 257 ft 19 kts 71°
2026-05-04 07:18 55.03872 -1.69366 255 ft 21 kts 65°
2026-05-04 07:19 55.03937 -1.69124 252 ft 23 kts 65°
2026-05-04 07:19 55.04005 -1.68863 250 ft 24 kts 65°
2026-05-04 07:19 55.04080 -1.68585 249 ft 26 kts 64°
2026-05-04 07:19 55.04156 -1.68298 248 ft 27 kts 66°
2026-05-04 07:20 55.04234 -1.68002 247 ft 27 kts 64°
2026-05-04 07:20 55.04314 -1.67697 244 ft 28 kts 66°
2026-05-04 07:20 55.04329 -1.67477 242 ft 6 kts 94°
2026-05-04 07:20 55.04329 -1.67474 242 ft 0 kts 94°
2026-05-04 07:22 55.04316 -1.67404 241 ft 4 kts 125°
2026-05-04 07:22 55.04315 -1.67403 241 ft 0 kts 126°
2026-05-04 07:23 55.04293 -1.67375 241 ft 9 kts 155°
2026-05-04 07:23 55.04244 -1.67362 241 ft 11 kts 184°
2026-05-04 07:23 55.04210 -1.67410 242 ft 0 kts 242°
2026-05-04 07:24 55.04201 -1.67439 242 ft 17 kts 243°
2026-05-04 07:24 55.04039 -1.68048 248 ft 91 kts 245°
2026-05-04 07:25 55.03737 -1.69184 260 ft 140 kts 245°
2026-05-04 07:26 54.96982 -1.77902 2962 ft 252 kts 201°
2026-05-04 07:27 54.95320 -1.79077 3706 ft 259 kts 203°
2026-05-04 07:27 54.93644 -1.80302 4495 ft 264 kts 204°
2026-05-04 07:27 54.92488 -1.81142 5036 ft 268 kts 204°
2026-05-04 07:27 54.90754 -1.82382 5832 ft 272 kts 204°
2026-05-04 07:28 54.88990 -1.83618 6640 ft 275 kts 203°
2026-05-04 07:28 54.87203 -1.84854 7400 ft 278 kts 203°
2026-05-04 07:28 54.85394 -1.86093 8170 ft 281 kts 203°
2026-05-04 07:28 54.83543 -1.87286 8925 ft 286 kts 197°
2026-05-04 07:29 54.81555 -1.87727 9664 ft 292 kts 179°
2026-05-04 07:29 54.79567 -1.87112 10342 ft 298 kts 161°
2026-05-04 07:29 54.77627 -1.85637 10688 ft 316 kts 156°
2026-05-04 07:29 54.75559 -1.83961 10864 ft 338 kts 155°
2026-05-04 07:30 54.73432 -1.82285 11349 ft 346 kts 160°
2026-05-04 07:30 54.71100 -1.81234 11984 ft 348 kts 174°
2026-05-04 07:30 54.68678 -1.81126 12644 ft 350 kts 187°
2026-05-04 07:30 54.66274 -1.81827 13304 ft 351 kts 192°
2026-05-04 07:31 54.63863 -1.82615 13947 ft 354 kts 192°
2026-05-04 07:31 54.61429 -1.83400 14518 ft 357 kts 192°
2026-05-04 07:33 54.43846 -1.88928 18445 ft 377 kts 191°
2026-05-04 07:33 54.41260 -1.89741 18917 ft 380 kts 191°
2026-05-04 07:33 54.38648 -1.90559 19357 ft 383 kts 191°
2026-05-04 07:33 54.36017 -1.91381 19794 ft 386 kts 191°
2026-05-04 07:34 54.33367 -1.92207 20239 ft 389 kts 191°
2026-05-04 07:34 54.30690 -1.93037 20668 ft 392 kts 190°
2026-05-04 07:34 54.27990 -1.93874 21101 ft 396 kts 190°
2026-05-04 07:34 54.25292 -1.94875 21511 ft 399 kts 197°
2026-05-04 07:35 54.22712 -1.96629 21930 ft 401 kts 207°
2026-05-04 07:35 54.20339 -1.99177 22331 ft 404 kts 218°
2026-05-04 07:35 54.18238 -2.02385 22724 ft 407 kts 224°
2026-05-04 07:35 54.16180 -2.05724 23137 ft 410 kts 224°
2026-05-04 07:36 54.14099 -2.09068 23532 ft 413 kts 223°
2026-05-04 07:36 54.11992 -2.12435 23864 ft 416 kts 223°
2026-05-04 07:38 53.95396 -2.32974 25956 ft 437 kts 200°
2026-05-04 07:38 53.92540 -2.34794 26247 ft 439 kts 200°
2026-05-04 07:38 53.89677 -2.36631 26547 ft 442 kts 200°
2026-05-04 07:38 53.86794 -2.38485 26839 ft 444 kts 200°
2026-05-04 07:39 53.83897 -2.40348 27127 ft 447 kts 200°
2026-05-04 07:39 53.81020 -2.42198 27411 ft 449 kts 200°
2026-05-04 07:39 53.78053 -2.44104 27695 ft 452 kts 200°
2026-05-04 07:39 53.75138 -2.45968 27967 ft 455 kts 200°
2026-05-04 07:40 53.72172 -2.47861 28251 ft 457 kts 199°
2026-05-04 07:40 53.69185 -2.49725 28518 ft 460 kts 196°
2026-05-04 07:40 53.66583 -2.50849 28731 ft 460 kts 188°
2026-05-04 07:40 53.63392 -2.51383 28991 ft 460 kts 178°
2026-05-04 07:41 53.60212 -2.51026 29234 ft 458 kts 168°
2026-05-04 07:41 53.57115 -2.49810 29505 ft 456 kts 158°
2026-05-04 07:41 53.54362 -2.48022 29736 ft 456 kts 154°
2026-05-04 07:41 53.51431 -2.45971 29932 ft 459 kts 153°
2026-05-04 07:42 53.48476 -2.43883 30081 ft 462 kts 153°
2026-05-04 07:42 53.45505 -2.41783 30215 ft 466 kts 153°
2026-05-04 07:42 53.42501 -2.39659 30339 ft 470 kts 153°
2026-05-04 07:42 53.39481 -2.37521 30466 ft 473 kts 153°
2026-05-04 07:43 53.36442 -2.35372 30600 ft 475 kts 154°
2026-05-04 07:43 53.33386 -2.33216 30714 ft 478 kts 154°
2026-05-04 07:43 53.30315 -2.31054 30846 ft 481 kts 154°
2026-05-04 07:43 53.27221 -2.28885 30973 ft 483 kts 154°
2026-05-04 07:44 53.24107 -2.26715 31148 ft 485 kts 154°
2026-05-04 07:44 53.20999 -2.24554 31392 ft 484 kts 154°
2026-05-04 07:44 53.17888 -2.22392 31669 ft 483 kts 155°
2026-05-04 07:44 53.14793 -2.20238 31943 ft 482 kts 155°
2026-05-04 07:45 53.11700 -2.18086 32209 ft 481 kts 155°
2026-05-04 07:45 53.08618 -2.15944 32487 ft 480 kts 155°
2026-05-04 07:45 53.05539 -2.13812 32760 ft 479 kts 155°
2026-05-04 07:45 53.02459 -2.11685 33021 ft 478 kts 156°
2026-05-04 07:46 52.99399 -2.09577 33279 ft 477 kts 156°
2026-05-04 07:46 52.96332 -2.07467 33554 ft 476 kts 156°
2026-05-04 07:46 52.93276 -2.05368 33829 ft 475 kts 156°
2026-05-04 07:46 52.90221 -2.03273 34074 ft 474 kts 156°
2026-05-04 07:47 52.87174 -2.01189 34282 ft 474 kts 156°
2026-05-04 07:47 52.84125 -1.99102 34481 ft 474 kts 156°
2026-05-04 07:47 52.81084 -1.97021 34684 ft 473 kts 156°
2026-05-04 07:49 52.59845 -1.82603 35055 ft 470 kts 158°
2026-05-04 07:49 52.53797 -1.78524 35055 ft 470 kts 158°
2026-05-04 07:50 52.47755 -1.74460 35056 ft 469 kts 158°
2026-05-04 07:50 52.41756 -1.70443 35056 ft 469 kts 158°
2026-05-04 07:51 52.35694 -1.66324 35059 ft 468 kts 154°
2026-05-04 07:51 52.30033 -1.61061 35049 ft 468 kts 150°
2026-05-04 07:52 52.24436 -1.55769 35027 ft 468 kts 150°
2026-05-04 07:52 52.18792 -1.50470 35024 ft 468 kts 151°
2026-05-04 07:54 51.96190 -1.29409 35028 ft 468 kts 151°
2026-05-04 07:55 51.90542 -1.24172 35028 ft 468 kts 151°
2026-05-04 07:55 51.84886 -1.18954 35032 ft 468 kts 152°
2026-05-04 07:56 51.79231 -1.13748 35027 ft 467 kts 152°
2026-05-04 07:56 51.73583 -1.08561 35004 ft 467 kts 152°
2026-05-04 07:57 51.67935 -1.03403 35001 ft 467 kts 152°
2026-05-04 07:57 51.62288 -0.98249 35001 ft 466 kts 152°
2026-05-04 07:58 51.56646 -0.93093 35003 ft 466 kts 152°
2026-05-04 07:58 51.50996 -0.87969 35006 ft 466 kts 152°
2026-05-04 07:59 51.45434 -0.82950 35006 ft 466 kts 152°
2026-05-04 07:59 51.39784 -0.77860 35005 ft 466 kts 153°
2026-05-04 08:00 51.34130 -0.72784 35035 ft 466 kts 153°
2026-05-04 08:02 51.11601 -0.52667 35004 ft 461 kts 153°
2026-05-04 08:02 51.06004 -0.47697 35006 ft 460 kts 154°
2026-05-04 08:03 51.00414 -0.42753 35025 ft 460 kts 154°
2026-05-04 08:03 50.94820 -0.37825 35028 ft 460 kts 154°
2026-05-04 08:04 50.89231 -0.32920 35031 ft 459 kts 154°
2026-05-04 08:04 50.86471 -0.30496 35026 ft 448 kts 154°
2026-05-04 08:04 50.83763 -0.28113 35030 ft 443 kts 154°
2026-05-04 08:05 50.78436 -0.23442 35031 ft 440 kts 154°
2026-05-04 08:05 50.73084 -0.18786 35025 ft 439 kts 154°
2026-05-04 08:06 50.67742 -0.14154 35022 ft 438 kts 155°
2026-05-04 08:06 50.62410 -0.09529 35018 ft 437 kts 155°
2026-05-04 08:08 50.41142 0.08814 35012 ft 435 kts 155°
2026-05-04 08:11 50.17334 0.29369 35009 ft 434 kts 151°
2026-05-04 08:11 50.10655 0.36376 35007 ft 435 kts 149°
2026-05-04 08:12 50.04851 0.42522 35009 ft 434 kts 150°
2026-05-04 08:12 49.99819 0.47674 35010 ft 433 kts 150°
2026-05-04 08:13 49.95592 0.51941 35010 ft 432 kts 150°
2026-05-04 08:13 49.90556 0.57025 35013 ft 431 kts 150°
2026-05-04 08:14 49.85538 0.62109 35016 ft 431 kts 150°
2026-05-04 08:16 49.65306 0.81782 35006 ft 429 kts 151°
2026-05-04 08:16 49.60257 0.86671 35006 ft 428 kts 152°
2026-05-04 08:17 49.55211 0.91536 35010 ft 428 kts 152°
2026-05-04 08:17 49.50195 0.96352 35002 ft 428 kts 152°
2026-05-04 08:19 49.30030 1.15629 35003 ft 426 kts 152°
2026-05-04 08:20 49.24995 1.20406 35004 ft 425 kts 152°
2026-05-04 08:20 49.19964 1.25167 34997 ft 425 kts 152°
2026-05-04 08:21 49.14935 1.29922 34995 ft 425 kts 152°
2026-05-04 08:21 49.09911 1.34654 34987 ft 424 kts 152°
2026-05-04 08:22 49.04884 1.39384 34980 ft 424 kts 152°
2026-05-04 08:24 48.84807 1.58149 34978 ft 423 kts 153°
2026-05-04 08:24 48.79793 1.62813 34978 ft 422 kts 153°
2026-05-04 08:25 48.74777 1.67468 34977 ft 423 kts 153°
2026-05-04 08:25 48.69767 1.72103 34980 ft 423 kts 153°
2026-05-04 08:27 48.47975 1.83648 34976 ft 415 kts 166°
2026-05-04 08:28 48.42466 1.86288 34977 ft 415 kts 166°
2026-05-04 08:28 48.36959 1.88926 34981 ft 415 kts 166°
2026-05-04 08:29 48.31454 1.91545 34982 ft 415 kts 166°
2026-05-04 08:31 48.09416 2.01991 34987 ft 416 kts 166°
2026-05-04 08:33 47.87244 2.12396 35002 ft 417 kts 166°
2026-05-04 08:35 47.65086 2.22717 34991 ft 417 kts 166°
2026-05-04 08:35 47.59540 2.25283 34987 ft 425 kts 166°
2026-05-04 08:37 47.39422 2.34552 34984 ft 434 kts 166°
2026-05-04 08:38 47.33659 2.37198 34984 ft 434 kts 166°
2026-05-04 08:38 47.27888 2.39830 34985 ft 434 kts 166°
2026-05-04 08:40 47.04805 2.50317 34989 ft 434 kts 166°
2026-05-04 08:41 46.99039 2.52926 34988 ft 434 kts 166°
2026-05-04 08:41 46.93268 2.55525 34989 ft 434 kts 166°
2026-05-04 08:42 46.87494 2.58119 34988 ft 434 kts 166°
2026-05-04 08:42 46.81723 2.60719 34987 ft 434 kts 166°
2026-05-04 08:43 46.75957 2.63297 34983 ft 434 kts 166°
2026-05-04 08:43 46.70184 2.65866 34983 ft 434 kts 166°
2026-05-04 08:44 46.64408 2.68436 34982 ft 434 kts 166°
2026-05-04 08:46 46.41310 2.78693 34977 ft 434 kts 167°
2026-05-04 08:46 46.35535 2.81232 34984 ft 434 kts 167°
2026-05-04 08:47 46.29752 2.83787 34979 ft 434 kts 167°
2026-05-04 08:47 46.23971 2.86324 34979 ft 434 kts 167°
2026-05-04 08:48 46.18187 2.88847 34991 ft 435 kts 167°
2026-05-04 08:48 46.12393 2.91382 34998 ft 435 kts 167°
2026-05-04 08:49 46.06596 2.93920 35004 ft 436 kts 167°
2026-05-04 08:50 45.86272 3.02734 35005 ft 436 kts 167°
2026-05-04 08:51 45.80462 3.05240 34998 ft 436 kts 167°
2026-05-04 08:51 45.74659 3.07740 34990 ft 435 kts 167°
2026-05-04 08:52 45.68860 3.10240 34984 ft 436 kts 167°
2026-05-04 08:52 45.63055 3.12734 34982 ft 436 kts 167°
2026-05-04 08:54 45.39777 3.22665 34976 ft 437 kts 167°
2026-05-04 08:55 45.33955 3.25135 34978 ft 437 kts 167°
2026-05-04 08:55 45.28164 3.27589 34987 ft 438 kts 167°
2026-05-04 09:01 44.67573 3.52931 35028 ft 441 kts 168°
2026-05-04 09:01 44.61684 3.55368 35029 ft 441 kts 168°
2026-05-04 09:02 44.55787 3.57806 35032 ft 442 kts 168°
2026-05-04 09:02 44.49883 3.60238 35042 ft 442 kts 168°
2026-05-04 09:03 44.43977 3.62658 35044 ft 443 kts 168°
2026-05-04 09:03 44.38065 3.65082 35056 ft 443 kts 168°
2026-05-04 09:04 44.32144 3.67506 35063 ft 444 kts 168°
2026-05-04 09:04 44.26214 3.69933 35064 ft 444 kts 168°
2026-05-04 09:05 44.20282 3.72346 35061 ft 444 kts 169°
2026-05-04 09:05 44.14344 3.74752 35066 ft 445 kts 169°
2026-05-04 09:06 44.08395 3.77166 35061 ft 446 kts 169°
2026-05-04 09:08 43.84605 3.86774 35033 ft 445 kts 169°
2026-05-04 09:08 43.78661 3.89148 35025 ft 445 kts 169°
2026-05-04 09:09 43.72706 3.91531 35019 ft 445 kts 169°
2026-05-04 09:09 43.66747 3.93919 35015 ft 445 kts 169°
2026-05-04 09:10 43.60812 3.96395 35017 ft 450 kts 163°
2026-05-04 09:10 43.55487 4.01146 35007 ft 469 kts 141°
2026-05-04 09:11 43.51114 4.07911 35027 ft 474 kts 137°
2026-05-04 09:11 43.46763 4.14674 35024 ft 475 kts 138°
2026-05-04 09:12 43.42332 4.21498 35020 ft 475 kts 138°
2026-05-04 09:14 43.24693 4.48582 35005 ft 477 kts 138°
2026-05-04 09:14 43.20258 4.55364 35014 ft 478 kts 138°
2026-05-04 09:15 43.15814 4.62146 35003 ft 478 kts 138°
2026-05-04 09:15 43.11360 4.68914 35006 ft 479 kts 138°
2026-05-04 09:17 42.91213 4.99328 35013 ft 480 kts 138°
2026-05-04 09:18 42.86791 5.06177 35011 ft 486 kts 132°
2026-05-04 09:18 42.82778 5.13606 35015 ft 487 kts 132°
2026-05-04 09:19 42.78761 5.21034 35014 ft 488 kts 132°
2026-05-04 09:19 42.74731 5.28462 35013 ft 488 kts 132°
2026-05-04 09:20 42.70694 5.35897 35015 ft 489 kts 132°
2026-05-04 09:20 42.66642 5.43329 35017 ft 490 kts 132°
2026-05-04 09:21 42.62576 5.50753 35019 ft 490 kts 132°
2026-05-04 09:21 42.58490 5.58196 35021 ft 491 kts 132°
2026-05-04 09:22 42.54406 5.65632 35017 ft 492 kts 132°
2026-05-04 09:22 42.50312 5.73080 35026 ft 493 kts 132°
2026-05-04 09:23 42.46200 5.80521 35031 ft 494 kts 133°
2026-05-04 09:23 42.42075 5.87965 35034 ft 494 kts 133°
2026-05-04 09:25 42.25482 6.17736 35035 ft 497 kts 133°
2026-05-04 09:26 42.21309 6.25178 35034 ft 498 kts 133°
2026-05-04 09:26 42.17130 6.32626 35034 ft 498 kts 133°
2026-05-04 09:27 42.12929 6.40075 35040 ft 499 kts 133°
2026-05-04 09:27 42.08771 6.47588 35043 ft 502 kts 131°
2026-05-04 09:28 42.04720 6.55251 35043 ft 503 kts 130°
2026-05-04 09:28 42.00672 6.62929 35049 ft 503 kts 130°
2026-05-04 09:29 41.96583 6.70562 35045 ft 503 kts 131°
2026-05-04 09:29 41.92459 6.78167 35046 ft 504 kts 131°
2026-05-04 09:30 41.88330 6.85771 35050 ft 504 kts 131°
2026-05-04 09:30 41.84199 6.93379 35051 ft 505 kts 131°
2026-05-04 09:31 41.80061 7.00989 35050 ft 505 kts 131°
2026-05-04 09:31 41.75914 7.08596 35051 ft 506 kts 131°
2026-05-04 09:32 41.71760 7.16210 35052 ft 506 kts 131°
2026-05-04 09:34 41.55095 7.46535 35059 ft 507 kts 131°
2026-05-04 09:34 41.50902 7.54117 35081 ft 509 kts 131°
2026-05-04 09:35 41.46688 7.61703 35082 ft 509 kts 131°
2026-05-04 09:35 41.42432 7.69349 35080 ft 510 kts 131°
2026-05-04 09:37 41.25489 7.99648 35079 ft 513 kts 131°
2026-05-04 09:38 41.21204 8.07232 35078 ft 513 kts 131°
2026-05-04 09:38 41.16772 8.14639 35083 ft 508 kts 140°
2026-05-04 09:39 41.11245 8.20190 35082 ft 490 kts 155°
2026-05-04 09:39 41.05283 8.24238 35079 ft 478 kts 163°
2026-05-04 09:40 40.99217 8.27881 35072 ft 478 kts 163°
2026-05-04 09:40 40.94139 8.30927 35070 ft 479 kts 163°
2026-05-04 09:42 40.69858 8.45450 35065 ft 481 kts 163°
2026-05-04 09:43 40.63756 8.49070 35069 ft 481 kts 163°
2026-05-04 09:43 40.57648 8.52696 35064 ft 482 kts 163°
2026-05-04 09:44 40.51528 8.56327 35071 ft 482 kts 163°
2026-05-04 09:46 40.27005 8.70765 35087 ft 484 kts 163°
2026-05-04 09:46 40.20861 8.74365 35081 ft 483 kts 163°
2026-05-04 09:47 40.14720 8.77965 35084 ft 483 kts 163°
2026-05-04 09:49 39.90094 8.92289 35094 ft 485 kts 163°
2026-05-04 09:51 39.68537 9.04765 35096 ft 486 kts 163°
2026-05-04 09:51 39.62480 9.08741 35089 ft 495 kts 154°
2026-05-04 09:52 39.56657 9.13547 35082 ft 496 kts 154°
2026-05-04 09:52 39.50837 9.18367 35081 ft 497 kts 154°
2026-05-04 09:53 39.45009 9.23162 35080 ft 497 kts 154°
2026-05-04 09:53 39.39177 9.27943 35078 ft 497 kts 154°
2026-05-04 09:53 39.36277 9.30322 35102 ft 486 kts 154°
2026-05-04 09:54 39.33449 9.32645 35101 ft 478 kts 154°
2026-05-04 09:54 39.27863 9.37209 35102 ft 474 kts 154°
2026-05-04 09:55 39.22277 9.41751 35108 ft 475 kts 154°
2026-05-04 09:55 39.16694 9.46284 35114 ft 475 kts 154°
2026-05-04 09:56 39.10995 9.50513 35110 ft 466 kts 164°
2026-05-04 09:56 39.04887 9.52894 35103 ft 457 kts 173°
2026-05-04 09:57 38.98717 9.54957 35091 ft 458 kts 173°
2026-05-04 09:57 38.92545 9.57025 35091 ft 459 kts 173°
2026-05-04 09:58 38.86352 9.59080 35081 ft 460 kts 173°
2026-05-04 09:58 38.80149 9.61090 35081 ft 461 kts 173°
2026-05-04 10:00 38.55192 9.69159 35081 ft 463 kts 173°
2026-05-04 10:04 38.11522 9.83200 35105 ft 459 kts 173°
2026-05-04 10:04 38.05337 9.85190 35098 ft 458 kts 173°
2026-05-04 10:05 37.99166 9.87169 35104 ft 457 kts 173°
2026-05-04 10:05 37.93065 9.89122 35106 ft 456 kts 173°
2026-05-04 10:06 37.86928 9.91083 35108 ft 455 kts 173°
2026-05-04 10:06 37.80853 9.93013 35097 ft 454 kts 172°
2026-05-04 10:08 37.65597 10.07985 35083 ft 477 kts 137°
2026-05-04 10:08 37.63327 10.11036 35084 ft 478 kts 137°
2026-05-04 10:08 37.58775 10.17144 35086 ft 478 kts 137°
2026-05-04 10:09 37.54185 10.23302 35105 ft 488 kts 137°
2026-05-04 10:09 37.49474 10.29610 35102 ft 501 kts 137°
2026-05-04 10:10 37.44665 10.36017 35109 ft 513 kts 137°
2026-05-04 10:10 37.39734 10.42592 35100 ft 518 kts 137°
2026-05-04 10:11 37.34787 10.49193 35099 ft 519 kts 136°
2026-05-04 10:11 37.29825 10.55807 35040 ft 520 kts 136°
2026-05-04 10:12 37.24863 10.62397 35167 ft 520 kts 136°
2026-05-04 10:12 37.19874 10.68990 35163 ft 521 kts 136°
2026-05-04 10:13 37.17394 10.72269 34862 ft 513 kts 136°
2026-05-04 10:13 37.14956 10.75495 33759 ft 509 kts 136°
2026-05-04 10:13 37.12520 10.78709 32386 ft 509 kts 136°
2026-05-04 10:13 37.10077 10.81928 30976 ft 510 kts 135°
2026-05-04 10:14 37.07616 10.85126 29420 ft 510 kts 139°
2026-05-04 10:14 37.04794 10.87750 28121 ft 499 kts 154°
2026-05-04 10:16 36.82869 10.90612 19581 ft 447 kts 182°
2026-05-04 10:16 36.79754 10.90671 18228 ft 448 kts 181°
2026-05-04 10:16 36.76645 10.90738 16993 ft 447 kts 181°
2026-05-04 10:16 36.73512 10.90812 15966 ft 449 kts 181°
2026-05-04 10:17 36.70457 10.90889 15049 ft 432 kts 181°
2026-05-04 10:17 36.67472 10.90963 14406 ft 425 kts 181°
2026-05-04 10:19 36.48991 10.89208 10940 ft 403 kts 202°
2026-05-04 10:19 36.46349 10.88000 10699 ft 405 kts 202°
2026-05-04 10:19 36.43704 10.86782 10349 ft 405 kts 202°
2026-05-04 10:19 36.41052 10.85561 9792 ft 405 kts 202°
2026-05-04 10:20 36.38415 10.84352 9236 ft 403 kts 202°
2026-05-04 10:20 36.35796 10.83149 8710 ft 395 kts 201°
2026-05-04 10:20 36.33329 10.82019 8375 ft 363 kts 201°
2026-05-04 10:20 36.31052 10.80983 8158 ft 333 kts 201°
2026-05-04 10:21 36.28971 10.80037 8030 ft 306 kts 201°
2026-05-04 10:21 36.27036 10.79156 7674 ft 290 kts 201°
2026-05-04 10:21 36.25161 10.78296 7099 ft 285 kts 201°
2026-05-04 10:21 36.23338 10.77459 6493 ft 282 kts 201°
2026-05-04 10:22 36.19726 10.75804 5435 ft 266 kts 201°
2026-05-04 10:22 36.18061 10.75045 5185 ft 248 kts 201°
2026-05-04 10:22 36.16441 10.74305 4620 ft 245 kts 202°
2026-05-04 10:23 36.14895 10.73602 4401 ft 229 kts 202°
2026-05-04 10:23 36.13410 10.72928 4280 ft 227 kts 201°
2026-05-04 10:25 36.07453 10.64742 2988 ft 212 kts 268°
2026-05-04 10:25 36.07467 10.62916 2698 ft 212 kts 267°
2026-05-04 10:25 36.07479 10.61119 2424 ft 212 kts 267°
2026-05-04 10:25 36.07490 10.59295 2136 ft 213 kts 267°
2026-05-04 10:26 36.07500 10.57457 1859 ft 215 kts 267°
2026-05-04 10:26 36.07512 10.55631 1571 ft 209 kts 266°
2026-05-04 10:26 36.07523 10.53885 1323 ft 197 kts 266°
2026-05-04 10:26 36.07533 10.52251 1043 ft 182 kts 266°
2026-05-04 10:27 36.07541 10.50755 830 ft 167 kts 265°
2026-05-04 10:27 36.07549 10.49398 632 ft 152 kts 264°
2026-05-04 10:27 36.07550 10.48133 420 ft 145 kts 266°
2026-05-04 10:27 36.07557 10.46906 252 ft 143 kts 268°
2026-05-04 10:28 36.07570 10.45701 70 ft 139 kts 265°
2026-05-04 10:28 36.07565 10.44584 31 ft 113 kts 269°
2026-05-04 10:28 36.07572 10.43824 30 ft 63 kts 269°
2026-05-04 10:28 36.07607 10.43484 30 ft 26 kts 289°
2026-05-04 10:29 36.07701 10.43261 29 ft 36 kts 305°
2026-05-04 10:29 36.07856 10.43192 30 ft 21 kts
2026-05-04 10:29 36.07994 10.43192 30 ft 18 kts 14°
2026-05-04 10:29 36.08040 10.43322 30 ft 21 kts 95°
2026-05-04 10:30 36.08055 10.43502 30 ft 22 kts 98°
2026-05-04 10:30 36.08044 10.43654 30 ft 2 kts 89°
2026-05-04 10:30 36.08044 10.43661 30 ft 0 kts 89°
2026-05-04 10:30 36.08253 10.43648 17 ft 0 kts 76°